Back to catalog

COSMOS 839 DEB

AliveUNKNOWN
NORAD 10451·DEBRIS·🇷🇺 Russia

Launched Jul 8, 1976 from Plesetsk Cosmodrome

Loading…

Next Passes (next 24 hours)

TLE

FreshSource: Space-Track

Epoch: Sep 14, 2026, 08:20 UTC

1 10451U 76067AC  26257.34783544 -.00000061  00000-0 -11361-4 0  9992
2 10451  65.8493 250.8019 0763137  68.1269 299.9072 12.45892771281984

Track COSMOS 839 DEB in real time with AllMySat

Download on the App Store